Time,TemperatureF,DewpointF,PressureIn,WindDirection,WindDirectionDegrees,WindSpeedMPH,WindSpeedGustMPH,Humidity,HourlyPrecipIn,Conditions,Clouds,dailyrainin,SoftwareType,DateUTC
2013-09-05 00:05:00,-999.0,-99.9,29.66,North,-999,-999.0,-999.0,-999,-99.99,,,0.00,weatherlink.com 1.10,2013-09-05 08:05:00,
2013-09-05 00:20:00,-999.0,-99.9,29.67,North,-999,-999.0,-999.0,-999,-99.99,,,0.00,weatherlink.com 1.10,2013-09-05 08:20:00,
2013-09-05 00:36:00,-999.0,-99.9,29.68,North,-999,-999.0,-999.0,-999,-99.99,,,0.00,weatherlink.com 1.10,2013-09-05 08:36:00,
2013-09-05 00:51:00,-999.0,-99.9,29.69,North,-999,-999.0,-999.0,-999,-99.99,,,0.00,weatherlink.com 1.10,2013-09-05 08:51:00,
2013-09-05 01:06:00,-999.0,-99.9,29.69,North,-999,-999.0,-999.0,-999,-99.99,,,0.00,weatherlink.com 1.10,2013-09-05 09:06:00,
2013-09-05 01:21:00,-999.0,-99.9,29.70,North,-999,-999.0,-999.0,-999,-99.99,,,0.00,weatherlink.com 1.10,2013-09-05 09:21:00,
2013-09-05 01:36:00,-999.0,-99.9,29.71,North,-999,-999.0,-999.0,-999,-99.99,,,0.00,weatherlink.com 1.10,2013-09-05 09:36:00,
2013-09-05 01:51:00,-999.0,-99.9,29.72,North,-999,-999.0,-999.0,-999,-99.99,,,0.00,weatherlink.com 1.10,2013-09-05 09:51:00,
2013-09-05 02:06:00,-999.0,-99.9,29.74,North,-999,-999.0,-999.0,-999,-99.99,,,0.00,weatherlink.com 1.10,2013-09-05 10:06:00,
2013-09-05 02:21:00,-999.0,-99.9,29.75,North,-999,-999.0,-999.0,-999,-99.99,,,0.00,weatherlink.com 1.10,2013-09-05 10:21:00,
2013-09-05 02:36:00,-999.0,-99.9,29.76,North,-999,-999.0,-999.0,-999,-99.99,,,0.00,weatherlink.com 1.10,2013-09-05 10:36:00,
2013-09-05 02:51:00,-999.0,-99.9,29.76,North,-999,-999.0,-999.0,-999,-99.99,,,0.00,weatherlink.com 1.10,2013-09-05 10:51:00,
2013-09-05 03:06:00,-999.0,-99.9,29.77,North,-999,-999.0,-999.0,-999,-99.99,,,0.00,weatherlink.com 1.10,2013-09-05 11:06:00,
2013-09-05 03:21:00,-999.0,-99.9,29.78,North,-999,-999.0,-999.0,-999,-99.99,,,0.00,weatherlink.com 1.10,2013-09-05 11:21:00,
2013-09-05 03:36:00,-999.0,-99.9,29.78,North,-999,-999.0,-999.0,-999,-99.99,,,0.00,weatherlink.com 1.10,2013-09-05 11:36:00,
2013-09-05 03:52:00,-999.0,-99.9,29.79,North,-999,-999.0,-999.0,-999,-99.99,,,0.00,weatherlink.com 1.10,2013-09-05 11:52:00,
2013-09-05 04:07:00,-999.0,-99.9,29.79,North,-999,-999.0,-999.0,-999,-99.99,,,0.00,weatherlink.com 1.10,2013-09-05 12:07:00,
2013-09-05 04:22:00,-999.0,-99.9,29.80,North,-999,-999.0,-999.0,-999,-99.99,,,0.00,weatherlink.com 1.10,2013-09-05 12:22:00,
2013-09-05 04:37:00,-999.0,-99.9,29.81,North,-999,-999.0,-999.0,-999,-99.99,,,0.00,weatherlink.com 1.10,2013-09-05 12:37:00,
2013-09-05 04:52:00,-999.0,-99.9,29.81,North,-999,-999.0,-999.0,-999,-99.99,,,0.00,weatherlink.com 1.10,2013-09-05 12:52:00,
2013-09-05 05:07:00,-999.0,-99.9,29.82,North,-999,-999.0,-999.0,-999,-99.99,,,0.00,weatherlink.com 1.10,2013-09-05 13:07:00,
2013-09-05 05:22:00,-999.0,-99.9,29.82,North,-999,-999.0,-999.0,-999,-99.99,,,0.00,weatherlink.com 1.10,2013-09-05 13:22:00,
2013-09-05 05:37:00,-999.0,-99.9,29.82,North,-999,-999.0,-999.0,-999,-99.99,,,0.00,weatherlink.com 1.10,2013-09-05 13:37:00,
2013-09-05 05:52:00,-999.0,-99.9,29.82,North,-999,-999.0,-999.0,-999,-99.99,,,0.00,weatherlink.com 1.10,2013-09-05 13:52:00,
2013-09-05 06:07:00,-999.0,-99.9,29.83,North,-999,-999.0,-999.0,-999,-99.99,,,0.00,weatherlink.com 1.10,2013-09-05 14:07:00,
2013-09-05 06:22:00,-999.0,-99.9,29.83,North,-999,-999.0,-999.0,-999,-99.99,,,0.00,weatherlink.com 1.10,2013-09-05 14:22:00,
2013-09-05 06:37:00,-999.0,-99.9,29.84,North,-999,-999.0,-999.0,-999,-99.99,,,0.00,weatherlink.com 1.10,2013-09-05 14:37:00,
2013-09-05 06:52:00,-999.0,-99.9,29.84,North,-999,-999.0,-999.0,-999,-99.99,,,0.00,weatherlink.com 1.10,2013-09-05 14:52:00,
2013-09-05 07:07:00,-999.0,-99.9,29.83,North,-999,-999.0,-999.0,-999,-99.99,,,0.00,weatherlink.com 1.10,2013-09-05 15:07:00,
2013-09-05 07:23:00,-999.0,-99.9,29.85,North,-999,-999.0,-999.0,-999,-99.99,,,0.00,weatherlink.com 1.10,2013-09-05 15:23:00,
2013-09-05 07:38:00,-999.0,-99.9,29.85,North,-999,-999.0,-999.0,-999,-99.99,,,0.00,weatherlink.com 1.10,2013-09-05 15:38:00,
2013-09-05 07:53:00,-999.0,-99.9,29.86,North,-999,-999.0,-999.0,-999,-99.99,,,0.00,weatherlink.com 1.10,2013-09-05 15:53:00,
2013-09-05 08:08:00,-999.0,-99.9,29.86,North,-999,-999.0,-999.0,-999,-99.99,,,0.00,weatherlink.com 1.10,2013-09-05 16:08:00,
2013-09-05 08:23:00,-999.0,-99.9,29.86,North,-999,-999.0,-999.0,-999,-99.99,,,0.00,weatherlink.com 1.10,2013-09-05 16:23:00,
2013-09-05 08:38:00,-999.0,-99.9,29.86,North,-999,-999.0,-999.0,-999,-99.99,,,0.00,weatherlink.com 1.10,2013-09-05 16:38:00,
2013-09-05 08:53:00,-999.0,-99.9,29.86,North,-999,-999.0,-999.0,-999,-99.99,,,0.00,weatherlink.com 1.10,2013-09-05 16:53:00,
2013-09-05 09:08:00,-999.0,-99.9,29.87,North,-999,-999.0,-999.0,-999,-99.99,,,0.00,weatherlink.com 1.10,2013-09-05 17:08:00,
2013-09-05 09:23:00,-999.0,-99.9,29.87,North,-999,-999.0,-999.0,-999,-99.99,,,0.00,weatherlink.com 1.10,2013-09-05 17:23:00,
2013-09-05 09:38:00,-999.0,-99.9,29.87,North,-999,-999.0,-999.0,-999,-99.99,,,0.00,weatherlink.com 1.10,2013-09-05 17:38:00,
2013-09-05 09:53:00,-999.0,-99.9,29.88,North,-999,-999.0,-999.0,-999,-99.99,,,0.00,weatherlink.com 1.10,2013-09-05 17:53:00,
2013-09-05 10:08:00,-999.0,-99.9,29.87,North,-999,-999.0,-999.0,-999,-99.99,,,0.00,weatherlink.com 1.10,2013-09-05 18:08:00,
2013-09-05 10:23:00,-999.0,-99.9,29.88,North,-999,-999.0,-999.0,-999,-99.99,,,0.00,weatherlink.com 1.10,2013-09-05 18:23:00,
2013-09-05 10:39:00,-999.0,-99.9,29.88,North,-999,-999.0,-999.0,-999,-99.99,,,0.00,weatherlink.com 1.10,2013-09-05 18:39:00,
2013-09-05 10:54:00,-999.0,-99.9,29.87,North,-999,-999.0,-999.0,-999,-99.99,,,0.00,weatherlink.com 1.10,2013-09-05 18:54:00,
2013-09-05 11:09:00,-999.0,-99.9,29.87,North,-999,-999.0,-999.0,-999,-99.99,,,0.00,weatherlink.com 1.10,2013-09-05 19:09:00,
2013-09-05 11:24:00,-999.0,-99.9,29.88,North,-999,-999.0,-999.0,-999,-99.99,,,0.00,weatherlink.com 1.10,2013-09-05 19:24:00,
2013-09-05 11:39:00,-999.0,-99.9,29.88,North,-999,-999.0,-999.0,-999,-99.99,,,0.00,weatherlink.com 1.10,2013-09-05 19:39:00,
2013-09-05 11:54:00,-999.0,-99.9,29.88,North,-999,-999.0,-999.0,-999,-99.99,,,0.00,weatherlink.com 1.10,2013-09-05 19:54:00,
2013-09-05 12:09:00,-999.0,-99.9,29.88,North,-999,-999.0,-999.0,-999,-99.99,,,0.00,weatherlink.com 1.10,2013-09-05 20:09:00,
2013-09-05 12:24:00,-999.0,-99.9,29.89,North,-999,-999.0,-999.0,-999,-99.99,,,0.00,weatherlink.com 1.10,2013-09-05 20:24:00,
2013-09-05 12:39:00,-999.0,-99.9,29.89,North,-999,-999.0,-999.0,-999,-99.99,,,0.00,weatherlink.com 1.10,2013-09-05 20:39:00,
2013-09-05 12:54:00,-999.0,-99.9,29.89,North,-999,-999.0,-999.0,-999,-99.99,,,0.00,weatherlink.com 1.10,2013-09-05 20:54:00,
2013-09-05 13:09:00,-999.0,-99.9,29.89,North,-999,-999.0,-999.0,-999,-99.99,,,0.00,weatherlink.com 1.10,2013-09-05 21:09:00,
2013-09-05 13:24:00,-999.0,-99.9,29.89,North,-999,-999.0,-999.0,-999,-99.99,,,0.00,weatherlink.com 1.10,2013-09-05 21:24:00,
2013-09-05 13:39:00,-999.0,-99.9,29.89,North,-999,-999.0,-999.0,-999,-99.99,,,0.00,weatherlink.com 1.10,2013-09-05 21:39:00,
2013-09-05 13:54:00,53.2,47.0,29.90,North,-999,0.0,-999.0,78,-99.99,,,0.00,weatherlink.com 1.10,2013-09-05 21:54:00,
2013-09-05 14:10:00,53.9,47.0,29.90,North,-999,0.0,-999.0,77,-99.99,,,0.00,weatherlink.com 1.10,2013-09-05 22:10:00,
2013-09-05 14:25:00,53.9,47.0,29.90,North,-999,0.0,-999.0,76,-99.99,,,0.00,weatherlink.com 1.10,2013-09-05 22:25:00,
2013-09-05 14:40:00,54.8,48.0,29.90,North,-999,0.0,-999.0,77,-99.99,,,0.00,weatherlink.com 1.10,2013-09-05 22:40:00,
2013-09-05 14:55:00,56.2,48.0,29.90,North,-999,0.0,-999.0,73,-99.99,,,0.00,weatherlink.com 1.10,2013-09-05 22:55:00,
2013-09-05 15:10:00,56.9,49.0,29.90,North,360,0.0,-999.0,74,-99.99,,,0.00,weatherlink.com 1.10,2013-09-05 23:10:00,
2013-09-05 15:25:00,57.6,48.0,29.90,North,-999,0.0,-999.0,70,-99.99,,,0.00,weatherlink.com 1.10,2013-09-05 23:25:00,
2013-09-05 15:40:00,57.5,50.0,29.90,North,-999,0.0,-999.0,75,-99.99,,,0.00,weatherlink.com 1.10,2013-09-05 23:40:00,
2013-09-05 15:55:00,57.6,48.0,29.90,North,-999,0.0,-999.0,70,-99.99,,,0.00,weatherlink.com 1.10,2013-09-05 23:55:00,
2013-09-05 16:25:00,57.0,49.0,29.90,North,-999,0.0,-999.0,74,-99.99,,,0.00,weatherlink.com 1.10,2013-09-06 00:25:00,
2013-09-05 16:40:00,56.8,49.0,29.90,North,360,0.0,-999.0,75,-99.99,,,0.00,weatherlink.com 1.10,2013-09-06 00:40:00,
2013-09-05 16:55:00,56.6,49.0,29.90,North,360,0.0,-999.0,77,-99.99,,,0.00,weatherlink.com 1.10,2013-09-06 00:55:00,
2013-09-05 17:10:00,56.3,49.0,29.90,North,-999,0.0,-999.0,77,-99.99,,,0.00,weatherlink.com 1.10,2013-09-06 01:10:00,
2013-09-05 17:25:00,56.0,49.0,29.90,North,-999,0.0,-999.0,78,-99.99,,,0.00,weatherlink.com 1.10,2013-09-06 01:25:00,
2013-09-05 17:40:00,55.7,49.0,29.90,North,-999,0.0,-999.0,77,-99.99,,,0.00,weatherlink.com 1.10,2013-09-06 01:40:00,
2013-09-05 17:55:00,55.4,48.0,29.90,North,-999,0.0,-999.0,77,-99.99,,,0.00,weatherlink.com 1.10,2013-09-06 01:55:00,
2013-09-05 18:10:00,55.2,48.0,29.91,North,-999,0.0,-999.0,78,-99.99,,,0.00,weatherlink.com 1.10,2013-09-06 02:10:00,
2013-09-05 18:25:00,55.1,50.0,29.91,North,-999,0.0,-999.0,82,-99.99,,,0.00,weatherlink.com 1.10,2013-09-06 02:25:00,
2013-09-05 18:40:00,54.9,49.0,29.91,North,-999,0.0,-999.0,79,-99.99,,,0.00,weatherlink.com 1.10,2013-09-06 02:40:00,
2013-09-05 18:55:00,54.7,49.0,29.91,North,-999,0.0,-999.0,80,-99.99,,,0.00,weatherlink.com 1.10,2013-09-06 02:55:00,
2013-09-05 19:10:00,54.5,49.0,29.91,North,-999,0.0,-999.0,81,-99.99,,,0.00,weatherlink.com 1.10,2013-09-06 03:10:00,
2013-09-05 19:25:00,-999.0,-99.9,29.91,North,-999,-999.0,-999.0,-999,-99.99,,,0.00,weatherlink.com 1.10,2013-09-06 03:25:00,
2013-09-05 19:40:00,-999.0,-99.9,29.91,North,-999,-999.0,-999.0,-999,-99.99,,,0.00,weatherlink.com 1.10,2013-09-06 03:40:00,
2013-09-05 19:55:00,-999.0,-99.9,29.91,North,-999,-999.0,-999.0,-999,-99.99,,,0.00,weatherlink.com 1.10,2013-09-06 03:55:00,
2013-09-05 20:10:00,-999.0,-99.9,29.92,North,-999,-999.0,-999.0,-999,-99.99,,,0.00,weatherlink.com 1.10,2013-09-06 04:10:00,
2013-09-05 20:25:00,-999.0,-99.9,29.92,North,-999,-999.0,-999.0,-999,-99.99,,,0.00,weatherlink.com 1.10,2013-09-06 04:25:00,
2013-09-05 20:40:00,-999.0,-99.9,29.93,North,-999,-999.0,-999.0,-999,-99.99,,,0.00,weatherlink.com 1.10,2013-09-06 04:40:00,
2013-09-05 20:56:00,-999.0,-99.9,29.93,North,-999,-999.0,-999.0,-999,-99.99,,,0.00,weatherlink.com 1.10,2013-09-06 04:56:00,
2013-09-05 21:11:00,-999.0,-99.9,29.93,North,-999,-999.0,-999.0,-999,-99.99,,,0.00,weatherlink.com 1.10,2013-09-06 05:11:00,
2013-09-05 21:26:00,-999.0,-99.9,29.93,North,-999,-999.0,-999.0,-999,-99.99,,,0.00,weatherlink.com 1.10,2013-09-06 05:26:00,
2013-09-05 21:41:00,-999.0,-99.9,29.94,North,-999,-999.0,-999.0,-999,-99.99,,,0.00,weatherlink.com 1.10,2013-09-06 05:41:00,
2013-09-05 21:56:00,-999.0,-99.9,29.94,North,-999,-999.0,-999.0,-999,-99.99,,,0.00,weatherlink.com 1.10,2013-09-06 05:56:00,
2013-09-05 22:11:00,-999.0,-99.9,29.94,North,-999,-999.0,-999.0,-999,-99.99,,,0.00,weatherlink.com 1.10,2013-09-06 06:11:00,
2013-09-05 22:26:00,-999.0,-99.9,29.94,North,-999,-999.0,-999.0,-999,-99.99,,,0.00,weatherlink.com 1.10,2013-09-06 06:26:00,
2013-09-05 22:41:00,-999.0,-99.9,29.94,North,-999,-999.0,-999.0,-999,-99.99,,,0.00,weatherlink.com 1.10,2013-09-06 06:41:00,
2013-09-05 22:56:00,-999.0,-99.9,29.94,North,-999,-999.0,-999.0,-999,-99.99,,,0.00,weatherlink.com 1.10,2013-09-06 06:56:00,
2013-09-05 23:11:00,-999.0,-99.9,29.94,North,-999,-999.0,-999.0,-999,-99.99,,,0.00,weatherlink.com 1.10,2013-09-06 07:11:00,
2013-09-05 23:26:00,-999.0,-99.9,29.95,North,-999,-999.0,-999.0,-999,-99.99,,,0.00,weatherlink.com 1.10,2013-09-06 07:26:00,
2013-09-05 23:41:00,-999.0,-99.9,29.95,North,-999,-999.0,-999.0,-999,-99.99,,,0.00,weatherlink.com 1.10,2013-09-06 07:41:00,
2013-09-05 23:56:00,-999.0,-99.9,29.96,North,-999,-999.0,-999.0,-999,-99.99,,,0.00,weatherlink.com 1.10,2013-09-06 07:56:00,